Regional Weather Roundup
Issued by NWS Newport/Morehead, NC

Current Version | Previous Version | Graphics & Text | Print | Product List | Glossary On
Versions: 1 2 3 4 5 6 7 8 9 10 11 12 13 14 15 16 17 18 19 20 21 22 23 24 25 26 27 28 29 30 31 32 33 34 35 36 37 38 39 40 41 42 43 44 45 46 47 48 49 50
000 ASUS42 KMHX 192322 RWRMHX WEATHER ROUNDUP FOR EASTERN NORTH CAROLINA NATIONAL WEATHER SERVICE NEWPORT/MOREHEAD CITY NC 600 PM EST FRI DEC 19 2014 NOTE: "FAIR" INDICATES FEW OR NO CLOUDS BELOW 12,000 FEET WITH NO SIGNIFICANT WEATHER AND/OR OBSTRUCTIONS TO VISIBILITY NCZ015>017-031-032-045>047-102-103-200000- NORTH COAST CITY SKY/WX TMP DP RH WIND PRES REMARKS EDENTON N/A 37 31 80 CALM 30.18R ELIZABETH CITY PTCLDY 42 31 64 E3 30.18R KITTY HAWK PTCLDY 40 32 72 N3 30.17R MANTEO PTCLDY 38 31 75 N3 30.18R $$ NCZ045>047-081-094-103-104-200000- CENTRAL COAST CITY SKY/WX TMP DP RH WIND PRES REMARKS FRISCO PTCLDY 41 34 76 NE6 30.16R SWANQUARTER N/A 41 N/A N/A N2 30.15R $$ NCZ095-097-098-100-101-200000- SOUTHERN COAST CITY SKY/WX TMP DP RH WIND PRES REMARKS BEAUFORT CLEAR 45 34 65 NE5 30.17R CEDAR ISLAND N/A 46 N/A N/A NW7 30.21R JACKSONVILLE PTCLDY 48 31 51 N6 30.17R PINEY ISLAND CLEAR 47 33 58 N5 30.17R WILMINGTON PTCLDY 49 35 58 CALM 30.15R $$ NCZ011>013-027>030-043-044-078>080-089-090>093-098-200000- COASTAL PLAIN CITY SKY/WX TMP DP RH WIND PRES REMARKS AHOSKIE PTCLDY 36 30 80 CALM 30.19R CLINTON MOCLDY 46 35 67 CALM 30.16R ELIZABETHTOWN MOCLDY 49 32 52 CALM 30.14S GOLDSBORO PTCLDY 44 38 77 CALM 30.15R GREENVILLE MOCLDY 43 32 65 CALM 30.19R HAVELOCK PTCLDY 46 34 62 CALM 30.18R KENANSVILLE MOCLDY 41 35 76 CALM 30.18R KINSTON MOCLDY 39 34 81 CALM 30.18R NEW BERN PTCLDY 45 32 60 CALM 30.18R RICHLANDS PTCLDY 43 30 61 CALM 30.18R ROCKY MOUNT PTCLDY 40 33 76 CALM 30.17R WASHINGTON PTCLDY 41 32 69 CALM 30.19R WHITEVILLE MOCLDY 48 34 56 CALM 30.13S $$ AMZ130-135-150-152-154-156-158-170-250-252-270-ANZ085-086-088-633-658-670-200000- MARINE OBSERVATIONS STATION/POSITION TIME TEMP WIND PRES WAVE SWELL AIR SEA DIR/SP/G HT/PER HT/PER (UTC) (F) (DEG/KT/KT) (MB) (FT/S) (FT/S) CHESAPEAKE LIGHT 2300 40 360/ 14/ 16 1022.4 64 E VA BEACH 2300 42 54 340/ 17/ 21 1020.6 4/ 6 DUCK 2300 42 47 10/ 10/ 12 1020.9 2 E DUCK 2300 47 N/A 3/ 6 10 NE DUCK 2300 51 N/A 3/ 6 OREGON INLET 2300 40 50 330/ 4/ 5 1021.8 13E OREGON INLT 2300 53 N/A 3/ 5 HATTERAS CG 2300 44 53 30/ 7/ 10 1021.9 DIAMOND BUOY 2300 46 1021.3 3/ 8 17 S OCRACOKE NOT AVBL CAPE LOOKOUT 2300 47 20/ 8/ 9 1021.5 BEAUFORT LAB 2300 46 53 60/ 4/ 5 1020.5 30 SE NEW RIVER 2300 53 62 40/ 6/ 8 1021.5 1/11 2/11 5 SE WRIGHTSVLE NOT AVBL 225 S CAPE HAT 2243 67 72 350/ 8/ 10 1019.4 3/ 8 3/ 8 41 SE CHARLESTON 2300 63 68 80/ 4/ 6 1019.5 2/10 2/10 $$

USA.gov is the U.S. government's official web portal to all federal, state and local government web resources and services.